VA2IEI-13 Weather Reports


time (UTC)temp
C
wind
direction
speed
KPH
gust
KPH
rain 1hr
cm
rain 24hr
cm
rain mn
cm
humidity
%
barometer
mb
20260506014023 13 270 3.2 9.7 0.28 0.74 0.74 92 1006.4
20260506013020 13 270 4.8 11.3 0.25 0.69 0.69 92 1006.3
20260506012037 13 270 3.2 12.9 0.20 0.64 0.64 92 1006.3
20260506011117 13 270 4.8 12.9 0.20 0.64 0.64 92 1005.7
20260506010110 13 270 3.2 16.1 0.18 0.61 0.61 92 1005.8
20260506005105 14 270 3.2 9.7 0.13 0.51 0.51 91 1005.8
20260506004101 14 248 1.6 8.0 0.08 0.46 0.46 90 1005.3
20260506003045 14 270 3.2 6.4 0.10 0.43 0.43 90 1005.0
20260506002041 14 270 1.6 11.3 0.10 0.43 0.43 90 1004.7
20260506001037 14 270 3.2 8.0 0.10 0.43 0.43 90 1004.8
20260506000031 14 248 3.2 6.4 0.10 0.43 0.43 90 1004.6
20260505235025 14 270 4.8 11.3 0.05 0.38 0.38 89 1004.7
20260505234019 15 270 4.8 11.3 0.05 0.38 0.38 88 1004.5
20260505233036 15 270 4.8 12.9 0.03 0.33 0.33 89 1004.3
20260505232119 15 270 4.8 9.7 0.03 0.33 0.33 89 1004.1
20260505231115 15 248 4.8 11.3 0.03 0.33 0.33 89 1003.9
20260505230107 15 270 3.2 8.0 0.03 0.33 0.33 89 1003.9
20260505225103 15 248 3.2 9.7 0.03 0.33 0.33 87 1003.7
20260505224057 15 248 4.8 14.5 0.03 0.33 0.33 86 1003.4
20260505223055 16 270 3.2 9.7 0.00 0.30 0.30 84 1003.1
20260505222050 16 270 4.8 9.7 0.00 0.30 0.30 83 1002.8
20260505221043 16 293 6.4 14.5 0.05 0.30 0.30 82 1002.7
20260505220058 16 270 6.4 16.1 0.05 0.30 0.30 82 1002.5
20260505215031 16 270 8.0 19.3 0.05 0.30 0.30 81 1002.4
20260505214027 16 293 11.3 27.4 0.05 0.30 0.30 81 1002.0
20260505213023 16 293 14.5 33.8 0.05 0.30 0.30 81 1001.8
20260505212019 17 293 19.3 40.2 0.05 0.30 0.30 78 1001.7
20260505211016 21 270 14.5 35.4 0.00 0.25 0.25 66 1001.2
20260505210118 21 270 14.5 37.0 0.00 0.25 0.25 66 1000.5
20260505205101 21 270 14.5 37.0 0.00 0.25 0.25 66 1000.2
20260505204059 21 270 12.9 25.7 0.00 0.25 0.25 67 1000.3
20260505203112 21 248 14.5 32.2 0.00 0.25 0.25 68 1000.4
20260505202049 21 248 11.3 25.7 0.00 0.25 0.25 70 1000.3
20260505201045 21 248 8.0 20.9 0.00 0.25 0.25 72 1000.5
20260505200100 20 248 6.4 19.3 0.00 0.25 0.25 75 1000.4
20260505195036 20 270 6.4 16.1 0.00 0.25 0.25 77 1000.8
20260505194030 20 248 4.8 17.7 0.00 0.25 0.25 77 1001.1
20260505193024 19 225 4.8 14.5 0.00 0.25 0.25 80 1001.1
20260505192018 18 225 4.8 11.3 0.00 0.25 0.25 83 1001.1
20260505191120 18 225 3.2 11.3 0.00 0.25 0.25 83 1001.5
20260505190124 17 203 1.6 4.8 0.00 0.25 0.25 86 1001.6
20260505185100 16 158 1.6 6.4 0.00 0.25 0.25 89 1001.5
20260505184057 16 158 1.6 4.8 0.03 0.25 0.25 90 1001.6
20260505183040 15 135 1.6 4.8 0.05 0.25 0.25 91 1001.8
20260505182034 15 158 1.6 6.4 0.13 0.25 0.25 91 1001.9
20260505181037 15 158 1.6 3.2 0.15 0.25 0.25 92 1002.2
20260505180118 15 248 1.6 4.8 0.18 0.25 0.25 92 1002.2
20260505175056 14 293 3.2 6.4 0.18 0.25 0.25 92 1002.2
20260505174053 14 315 3.2 8.0 0.15 0.23 0.23 91 1002.5
20260505173048 15 315 3.2 9.7 0.18 0.20 0.20 90 1002.3
20260505172043 15 315 4.8 11.3 0.13 0.13 0.13 89 1002.3
20260505171047 15 315 3.2 11.3 0.10 0.10 0.10 87 1002.3
20260505170022 15 293 1.6 4.8 0.08 0.08 0.08 85 1002.1
20260505165020 15 270 3.2 8.0 0.08 0.08 0.08 84 1002.2
20260505164132 15 270 4.8 11.3 0.08 0.08 0.08 83 1002.4
20260505163104 16 270 4.8 11.3 0.03 0.03 0.03 78 1003.1
20260505162120 17 270 4.8 16.1 0.00 0.00 0.00 76 1002.7
20260505161056 17 248 4.8 14.5 0.00 0.00 0.00 76 1003.1
20260505153029 18 225 9.7 27.4 0.00 0.03 0.00 72 1003.1
20260505152024 18 225 8.0 32.2 0.00 0.05 0.00 70 1002.9
20260505151017 19 225 9.7 27.4 0.00 0.05 0.00 68 1003.1
20260505150116 18 225 9.7 25.7 0.00 0.10 0.00 66 1003.4
20260505140108 16 68 1.6 3.2 0.00 0.33 0.00 67 1003.6
20260505124113 12 113 1.6 4.8 0.00 0.38 0.00 76 1003.9
20260505123107 12 90 1.6 4.8 0.00 0.38 0.00 77 1004.0
20260505122103 11 90 1.6 3.2 0.00 0.38 0.00 78 1004.1
20260505121120 11 23 1.6 3.2 0.00 0.38 0.00 80 1004.2
20260505120055 10 23 1.6 4.8 0.00 0.38 0.00 80 1004.3
20260505115051 10 23 1.6 3.2 0.00 0.38 0.00 80 1004.4
20260505114047 10 23 1.6 6.4 0.00 0.38 0.00 82 1004.4
20260505113043 10 315 1.6 4.8 0.00 0.38 0.00 80 1004.5
20260505112039 10 0.0 3.2 0.00 0.38 0.00 82 1004.5
20260505111034 9 0.0 3.2 0.00 0.38 0.00 84 1004.3
20260505102016 6 270 1.6 3.2 0.00 0.38 0.00 90 1004.3
20260505101117 6 0.0 3.2 0.00 0.38 0.00 90 1004.4
20260505100113 6 0.0 4.8 0.00 0.38 0.00 90 1004.5
20260505095108 5 0.0 1.6 0.00 0.38 0.00 90 1004.6
20260505094103 6 0.0 1.6 0.00 0.38 0.00 90 1004.7
20260505093119 6 0.0 4.8 0.00 0.38 0.00 90 1004.7
20260505092055 6 0.0 3.2 0.00 0.38 0.00 90 1004.7
20260505091049 6 0.0 3.2 0.00 0.38 0.00 90 1004.9
20260505090043 5 0.0 1.6 0.00 0.38 0.00 91 1004.8
20260505085039 5 0.0 1.6 0.00 0.38 0.00 90 1004.9
20260505084033 6 0.0 0.0 0.00 0.38 0.00 90 1004.8
20260505083029 6 0.0 0.0 0.00 0.38 0.00 90 1004.9
20260505082025 5 0.0 1.6 0.00 0.38 0.00 89 1004.9
20260505081021 6 0.0 0.0 0.00 0.38 0.00 89 1005.0
20260505080037 6 0.0 0.0 0.00 0.38 0.00 89 1005.0
20260505075013 6 0.0 1.6 0.00 0.38 0.00 89 1005.3
20260505074009 6 0.0 1.6 0.00 0.38 0.00 88 1005.4
20260505073037 6 0.0 1.6 0.00 0.38 0.00 88 1005.3
20260505072120 6 0.0 0.0 0.00 0.38 0.00 88 1005.2
20260505071116 6 0.0 1.6 0.00 0.38 0.00 87 1005.3
20260505070113 6 0.0 3.2 0.00 0.38 0.00 87 1005.4
20260505065107 6 0.0 1.6 0.00 0.38 0.00 87 1005.5
20260505064102 7 0.0 3.2 0.00 0.38 0.00 88 1005.6
20260505063059 6 0.0 3.2 0.00 0.38 0.00 87 1005.7
20260505062055 6 0.0 3.2 0.00 0.38 0.00 87 1005.7
20260505061050 6 0.0 1.6 0.00 0.38 0.00 88 1005.9
20260505060046 6 0.0 1.6 0.00 0.38 0.00 87 1006.0
20260505055042 6 0.0 1.6 0.00 0.38 0.00 87 1006.3
20260505054038 7 0.0 1.6 0.00 0.38 0.00 86 1006.3
20260505053032 7 0.0 1.6 0.00 0.38 0.00 86 1006.5
20260505052029 7 0.0 1.6 0.00 0.38 0.00 86 1006.5
20260505051025 7 0.0 1.6 0.00 0.38 0.00 85 1006.5
20260505041107 8 90 1.6 3.2 0.00 0.38 0.00 83 1007.1
20260505040104 8 0.0 1.6 0.00 0.38 0.00 83 1007.0
20260505035058 8 0.0 3.2 0.00 0.38 0.38 82 1007.2
20260505034051 8 0.0 3.2 0.00 0.38 0.38 82 1007.3
20260505033047 8 90 1.6 3.2 0.00 0.38 0.38 82 1007.3
20260505032031 8 90 1.6 3.2 0.00 0.38 0.38 82 1007.2
20260505031027 8 0.0 1.6 0.00 0.38 0.38 82 1007.5
20260505030044 8 0.0 3.2 0.00 0.38 0.38 82 1007.5
20260505025019 8 0.0 1.6 0.00 0.38 0.38 81 1007.5
20260505024015 8 0.0 3.2 0.00 0.38 0.38 81 1007.5
20260505023031 8 0.0 1.6 0.00 0.38 0.38 81 1007.6
20260505022007 8 0.0 1.6 0.00 0.38 0.38 82 1007.7
20260505021210 8 0.0 3.2 0.00 0.38 0.38 81 1007.8
20260505020125 8 0.0 3.2 0.00 0.38 0.38 81 1007.8
20260505015101 8 0.0 0.0 0.00 0.38 0.38 81 1007.8